QPF
0.00 0.00 0.00 0.00 0.00 0.00 0.00 0.01 0.03 0.07 0.04 0.01 0.01 0.00 0.00 0.00 0.00 0.00 0.00 0.00 0.00 0.00 0.00 0.00 0.00 0.00 0.01 0.02 0.02 0.01 0.01 0.01 0.01 0.01 0.01 0.01 0.01 0.01 0.02 0.03 0.03 0.03 0.03 0.04
0.00 0.01 0.00 0.00 0.00 0.00 0.00 0.00 0.03 0.06 0.02 0.00 0.00 0.01 0.02 0.02 0.01 0.00 0.00 0.00 0.00 0.00 0.00 0.00 0.00 0.00 0.00 0.01 0.01 0.01 0.01 0.01 0.01 0.01 0.00 0.00 0.00 0.00 0.01 0.01 0.02 0.02 0.02 0.03
0.00 0.02 0.01 0.00 0.00 0.00 0.00 0.01 0.06 0.08 0.02 0.01 0.01 0.03 0.05 0.04 0.01 0.00 0.00 0.00 0.00 0.00 0.00 0.00 0.00 0.00 0.00 0.00 0.00 0.00 0.00 0.00 0.00 0.00 0.00 0.00 0.00 0.00 0.00 0.01 0.01 0.01 0.01 0.02
0.00 0.00 0.00 0.00 0.01 0.00 0.02 0.01 0.01 0.01 0.01 0.02 0.03 0.12 0.15 0.10 0.05 0.03 0.01 0.00 0.00 0.00 0.00 0.00 0.00 0.00 0.00 0.00 0.00 0.00 0.00 0.00 0.00 0.00 0.00 0.00 0.00 0.00 0.00 0.00 0.00 0.00 0.00 0.01
0.00 0.00 0.00 0.00 0.01 0.00 0.01 0.00 0.00 0.00 0.01 0.03 0.09 0.19 0.25 0.12 0.13 0.08 0.02 0.00 0.00 0.00 0.00 0.00 0.00 0.00 0.00 0.00 0.00 0.00 0.00 0.00 0.00 0.00 0.00 0.00 0.00 0.00 0.00 0.00 0.00 0.00 0.00 0.00
0.00 0.00 0.00 0.00 0.00 0.00 0.00 0.00 0.01 0.04 0.06 0.13 0.24 0.24 0.30 0.22 0.17 0.06 0.01 0.00 0.00 0.00 0.00 0.00 0.00 0.00 0.00 0.00 0.00 0.00 0.00 0.00 0.00 0.00 0.00 0.00 0.01 0.01 0.00 0.00 0.00 0.00 0.00 0.00
0.02 0.01 0.00 0.00 0.00 0.00 0.00 0.00 0.07 0.24 0.32 0.26 0.19 0.16 0.19 0.06 0.02 0.01 0.00 0.00 0.00 0.00 0.00 0.00 0.00 0.00 0.00 0.00 0.00 0.00 0.00 0.00 0.00 0.00 0.00 0.00 0.01 0.01 0.01 0.00 0.00 0.00 0.00 0.00
0.05 0.03 0.01 0.00 0.00 0.00 0.00 0.00 0.04 0.11 0.09 0.09 0.08 0.13 0.11 0.01 0.00 0.00 0.00 0.00 0.00 0.00 0.00 0.00 0.00 0.00 0.00 0.00 0.00 0.00 0.00 0.00 0.00 0.00 0.00 0.00 0.00 0.00 0.00 0.00 0.00 0.00 0.00 0.00
0.01 0.01 0.00 0.00 0.00 0.00 0.00 0.00 0.00 0.00 0.00 0.02 0.06 0.10 0.06 0.00 0.00 0.00 0.00 0.00 0.00 0.00 0.00 0.00 0.00 0.00 0.00 0.00 0.00 0.00 0.00 0.00 0.00 0.00 0.00 0.00 0.00 0.00 0.00 0.00 0.00 0.00 0.00 0.00
0.00 0.00 0.00 0.00 0.00 0.00 0.00 0.00 0.00 0.00 0.00 0.00 0.03 0.07 0.08 0.01 0.00 0.00 0.00 0.00 0.00 0.00 0.00 0.00 0.00 0.00 0.00 0.00 0.00 0.00 0.00 0.00 0.00 0.00 0.00 0.00 0.00 0.00 0.00 0.00 0.00 0.00 0.00 0.00
0.00 0.00 0.00 0.00 0.00 0.00 0.00 0.00 0.00 0.00 0.00 0.00 0.00 0.02 0.01 0.00 0.00 0.00 0.00 0.00 0.00 0.00 0.00 0.00 0.00 0.00 0.00 0.00 0.00 0.00 0.00 0.00 0.00 0.00 0.00 0.00 0.00 0.00 0.00 0.00 0.00 0.00 0.00 0.01
0.00 0.00 0.00 0.00 0.00 0.00 0.00 0.00 0.00 0.00 0.00 0.00 0.00 0.00 0.00 0.00 0.00 0.00 0.00 0.00 0.00 0.00 0.00 0.00 0.00 0.00 0.00 0.00 0.00 0.00 0.00 0.00 0.00 0.00 0.00 0.00 0.00 0.00 0.00 0.00 0.00 0.01 0.01 0.01
0.00 0.00 0.00 0.03 0.04 0.01 0.00 0.00 0.00 0.00 0.00 0.00 0.00 0.00 0.00 0.00 0.00 0.00 0.00 0.00 0.00 0.00 0.00 0.00 0.00 0.00 0.00 0.00 0.00 0.00 0.00 0.00 0.00 0.00 0.00 0.00 0.00 0.00 0.01 0.01 0.01 0.01 0.01 0.01
0.00 0.00 0.00 0.02 0.02 0.00 0.00 0.00 0.00 0.00 0.00 0.00 0.00 0.00 0.00 0.00 0.00 0.00 0.00 0.00 0.00 0.00 0.00 0.00 0.00 0.00 0.00 0.00 0.00 0.00 0.00 0.00 0.00 0.00 0.00 0.00 0.01 0.01 0.01 0.01 0.01 0.01 0.01 0.02
0.00 0.00 0.00 0.00 0.00 0.00 0.00 0.00 0.00 0.00 0.00 0.00 0.00 0.00 0.00 0.00 0.00 0.00 0.00 0.00 0.00 0.00 0.00 0.00 0.00 0.00 0.00 0.00 0.00 0.00 0.00 0.00 0.00 0.01 0.01 0.01 0.01 0.01 0.01 0.01 0.01 0.02 0.02 0.02
0.00 0.00 0.00 0.00 0.00 0.00 0.00 0.00 0.00 0.00 0.00 0.00 0.00 0.00 0.00 0.00 0.00 0.00 0.00 0.00 0.00 0.00 0.00 0.00 0.00 0.00 0.00 0.00 0.00 0.00 0.00 0.01 0.01 0.01 0.01 0.01 0.01 0.01 0.01 0.02 0.02 0.03 0.03 0.04
0.00 0.00 0.00 0.00 0.00 0.00 0.00 0.00 0.00 0.00 0.00 0.00 0.00 0.00 0.00 0.00 0.00 0.00 0.00 0.00 0.00 0.00 0.00 0.00 0.00 0.00 0.00 0.00 0.00 0.00 0.01 0.01 0.01 0.01 0.01 0.01 0.01 0.02 0.02 0.02 0.02 0.04 0.05 0.06
0.00 0.00 0.00 0.00 0.00 0.00 0.00 0.00 0.00 0.00 0.00 0.00 0.00 0.00 0.00 0.00 0.00 0.00 0.00 0.00 0.00 0.00 0.00 0.00 0.00 0.00 0.00 0.00 0.00 0.00 0.00 0.01 0.01 0.01 0.02 0.01 0.02 0.02 0.02 0.03 0.04 0.06 0.07 0.07
0.00 0.00 0.00 0.00 0.00 0.00 0.00 0.00 0.00 0.00 0.00 0.00 0.00 0.00 0.00 0.00 0.00 0.00 0.00 0.00 0.00 0.00 0.00 0.00 0.00 0.00 0.00 0.00 0.00 0.01 0.01 0.01 0.01 0.02 0.02 0.02 0.02 0.02 0.03 0.04 0.06 0.07 0.08 0.08
0.00 0.00 0.00 0.00 0.00 0.00 0.00 0.00 0.00 0.00 0.00 0.00 0.00 0.00 0.00 0.00 0.00 0.00 0.00 0.00 0.00 0.00 0.00 0.00 0.00 0.00 0.01 0.01 0.01 0.01 0.01 0.01 0.02 0.02 0.02 0.02 0.03 0.03 0.04 0.05 0.06 0.07 0.08 0.08
0.00 0.00 0.00 0.00 0.00 0.00 0.00 0.00 0.00 0.00 0.00 0.00 0.00 0.00 0.00 0.00 0.00 0.00 0.00 0.00 0.00 0.00 0.00 0.00 0.00 0.00 0.01 0.01 0.01 0.01 0.01 0.02 0.02 0.02 0.02 0.02 0.03 0.04 0.05 0.06 0.07 0.08 0.08 0.08
0.00 0.00 0.00 0.00 0.00 0.00 0.00 0.00 0.00 0.00 0.00 0.00 0.00 0.00 0.00 0.00 0.00 0.00 0.00 0.00 0.00 0.00 0.00 0.00 0.00 0.00 0.01 0.01 0.02 0.02 0.02 0.02 0.02 0.02 0.02 0.02 0.03 0.04 0.04 0.07 0.08 0.09 0.09 0.09
0.00 0.00 0.00 0.00 0.00 0.00 0.00 0.00 0.00 0.00 0.00 0.00 0.00 0.00 0.00 0.00 0.00 0.00 0.00 0.00 0.00 0.00 0.00 0.00 0.00 0.00 0.01 0.01 0.02 0.02 0.02 0.02 0.02 0.02 0.02 0.02 0.03 0.05 0.07 0.09 0.10 0.10 0.11 0.11
0.00 0.00 0.00 0.00 0.00 0.00 0.00 0.00 0.00 0.00 0.00 0.00 0.00 0.00 0.00 0.00 0.00 0.00 0.00 0.00 0.00 0.00 0.00 0.00 0.00 0.00 0.01 0.01 0.01 0.02 0.02 0.02 0.02 0.01 0.01 0.02 0.03 0.05 0.08 0.11 0.11 0.11 0.11 0.10
0.00 0.00 0.00 0.00 0.00 0.00 0.00 0.00 0.00 0.00 0.00 0.00 0.00 0.00 0.00 0.00 0.00 0.00 0.00 0.00 0.00 0.00 0.00 0.00 0.00 0.01 0.01 0.01 0.01 0.01 0.01 0.01 0.01 0.01 0.01 0.02 0.04 0.06 0.09 0.11 0.12 0.08 0.07 0.04
0.00 0.00 0.00 0.00 0.00 0.00 0.00 0.00 0.00 0.00 0.00 0.00 0.00 0.00 0.00 0.00 0.00 0.00 0.00 0.00 0.00 0.00 0.00 0.00 0.00 0.00 0.00 0.01 0.01 0.01 0.01 0.01 0.02 0.02 0.02 0.02 0.03 0.06 0.09 0.12 0.13 0.09 0.03 0.01
MSLP
1007.26 1007.84 1008.31 1008.69 1009.02 1009.33 1009.63 1009.95 1010.26 1010.53 1010.74 1010.86 1010.90 1010.87 1010.83 1010.81 1010.87 1011.02 1011.27 1011.59 1011.93 1012.24 1012.46 1012.56 1012.55 1012.44 1012.28 1012.12 1012.01 1011.97 1012.01 1012.09 1012.19 1012.24 1012.23 1012.12 1011.92 1011.66 1011.39 1011.14 1010.97 1010.88 1010.87 1010.91
1007.69 1008.14 1008.50 1008.81 1009.13 1009.50 1009.95 1010.46 1010.99 1011.47 1011.84 1012.04 1012.05 1011.91 1011.65 1011.36 1011.11 1010.97 1010.97 1011.11 1011.34 1011.60 1011.84 1012.00 1012.07 1012.04 1011.95 1011.85 1011.79 1011.80 1011.89 1012.04 1012.21 1012.34 1012.39 1012.32 1012.13 1011.83 1011.48 1011.13 1010.85 1010.65 1010.57 1010.57
1007.97 1008.26 1008.49 1008.72 1009.03 1009.49 1010.09 1010.82 1011.59 1012.30 1012.85 1013.15 1013.18 1012.93 1012.48 1011.92 1011.38 1010.94 1010.68 1010.60 1010.69 1010.90 1011.14 1011.35 1011.49 1011.55 1011.55 1011.52 1011.52 1011.59 1011.74 1011.95 1012.18 1012.38 1012.48 1012.45 1012.26 1011.94 1011.53 1011.10 1010.71 1010.42 1010.26 1010.22
1008.08 1008.20 1008.29 1008.44 1008.75 1009.28 1010.05 1010.99 1012.01 1012.95 1013.69 1014.12 1014.17 1013.86 1013.26 1012.48 1011.67 1010.96 1010.45 1010.17 1010.13 1010.27 1010.51 1010.76 1010.98 1011.12 1011.20 1011.25 1011.31 1011.42 1011.60 1011.85 1012.12 1012.36 1012.50 1012.49 1012.32 1011.99 1011.55 1011.06 1010.60 1010.23 1009.99 1009.90
1008.07 1008.02 1007.97 1008.04 1008.34 1008.94 1009.84 1010.98 1012.21 1013.37 1014.29 1014.84 1014.94 1014.61 1013.90 1012.95 1011.94 1011.02 1010.31 1009.87 1009.72 1009.81 1010.05 1010.34 1010.63 1010.84 1010.99 1011.09 1011.18 1011.31 1011.50 1011.75 1012.02 1012.27 1012.43 1012.45 1012.31 1011.99 1011.54 1011.03 1010.52 1010.09 1009.79 1009.63
1008.03 1007.81 1007.63 1007.62 1007.91 1008.54 1009.54 1010.80 1012.19 1013.51 1014.57 1015.23 1015.40 1015.06 1014.31 1013.27 1012.13 1011.08 1010.24 1009.71 1009.49 1009.55 1009.80 1010.14 1010.48 1010.75 1010.95 1011.07 1011.17 1011.28 1011.43 1011.65 1011.89 1012.12 1012.29 1012.33 1012.21 1011.92 1011.50 1010.99 1010.48 1010.01 1009.66 1009.44
1008.01 1007.66 1007.37 1007.29 1007.54 1008.17 1009.19 1010.51 1011.97 1013.38 1014.52 1015.25 1015.47 1015.16 1014.41 1013.35 1012.18 1011.08 1010.20 1009.64 1009.40 1009.47 1009.74 1010.12 1010.51 1010.82 1011.04 1011.17 1011.24 1011.30 1011.39 1011.53 1011.72 1011.91 1012.06 1012.11 1012.02 1011.78 1011.41 1010.94 1010.44 1009.97 1009.58 1009.31
1008.11 1007.66 1007.30 1007.15 1007.33 1007.91 1008.89 1010.17 1011.61 1013.00 1014.15 1014.90 1015.15 1014.89 1014.18 1013.17 1012.05 1010.99 1010.14 1009.61 1009.41 1009.51 1009.83 1010.24 1010.66 1011.00 1011.22 1011.32 1011.34 1011.34 1011.35 1011.40 1011.51 1011.64 1011.76 1011.81 1011.75 1011.56 1011.25 1010.84 1010.38 1009.93 1009.52 1009.21
1008.33 1007.85 1007.44 1007.24 1007.35 1007.83 1008.69 1009.85 1011.17 1012.46 1013.54 1014.25 1014.50 1014.28 1013.66 1012.75 1011.73 1010.78 1010.04 1009.59 1009.46 1009.62 1009.98 1010.43 1010.86 1011.21 1011.41 1011.48 1011.45 1011.37 1011.29 1011.25 1011.27 1011.33 1011.41 1011.45 1011.41 1011.27 1011.02 1010.67 1010.27 1009.85 1009.45 1009.11
1008.65 1008.20 1007.80 1007.56 1007.60 1007.96 1008.65 1009.62 1010.74 1011.84 1012.77 1013.40 1013.63 1013.45 1012.93 1012.15 1011.30 1010.51 1009.91 1009.58 1009.54 1009.76 1010.16 1010.63 1011.07 1011.40 1011.58 1011.61 1011.53 1011.38 1011.22 1011.09 1011.03 1011.02 1011.04 1011.05 1011.02 1010.92 1010.72 1010.43 1010.08 1009.70 1009.32 1008.98
1009.04 1008.68 1008.33 1008.09 1008.06 1008.29 1008.79 1009.52 1010.38 1011.25 1012.00 1012.50 1012.68 1012.54 1012.12 1011.51 1010.83 1010.23 1009.80 1009.60 1009.66 1009.93 1010.35 1010.81 1011.23 1011.54 1011.69 1011.69 1011.56 1011.36 1011.14 1010.94 1010.81 1010.73 1010.69 1010.67 1010.62 1010.52 1010.35 1010.11 1009.80 1009.46 1009.11 1008.78
1009.41 1009.19 1008.94 1008.73 1008.66 1008.77 1009.07 1009.56 1010.16 1010.78 1011.31 1011.67 1011.81 1011.70 1011.38 1010.93 1010.45 1010.03 1009.77 1009.70 1009.83 1010.14 1010.55 1010.98 1011.36 1011.62 1011.73 1011.70 1011.54 1011.31 1011.05 1010.82 1010.62 1010.48 1010.39 1010.32 1010.23 1010.11 1009.95 1009.72 1009.44 1009.13 1008.81 1008.49
1009.71 1009.65 1009.53 1009.40 1009.31 1009.33 1009.47 1009.73 1010.08 1010.46 1010.79 1011.01 1011.09 1011.02 1010.81 1010.52 1010.22 1009.98 1009.86 1009.90 1010.08 1010.39 1010.76 1011.14 1011.45 1011.65 1011.72 1011.66 1011.48 1011.24 1010.97 1010.71 1010.48 1010.29 1010.14 1010.01 1009.87 1009.71 1009.51 1009.28 1009.00 1008.71 1008.41 1008.11
1009.90 1010.01 1010.03 1009.99 1009.93 1009.89 1009.90 1009.98 1010.11 1010.28 1010.43 1010.55 1010.59 1010.55 1010.44 1010.30 1010.16 1010.08 1010.09 1010.19 1010.40 1010.68 1010.98 1011.27 1011.50 1011.63 1011.64 1011.55 1011.37 1011.14 1010.87 1010.61 1010.36 1010.14 1009.94 1009.74 1009.54 1009.32 1009.07 1008.79 1008.50 1008.20 1007.91 1007.62
1009.98 1010.24 1010.40 1010.45 1010.42 1010.35 1010.28 1010.22 1010.19 1010.19 1010.22 1010.24 1010.26 1010.26 1010.25 1010.24 1010.25 1010.29 1010.39 1010.54 1010.74 1010.97 1011.19 1011.37 1011.49 1011.54 1011.50 1011.38 1011.20 1010.98 1010.73 1010.49 1010.24 1010.00 1009.75 1009.50 1009.23 1008.93 1008.62 1008.29 1007.96 1007.63 1007.32 1007.03
1009.96 1010.34 1010.60 1010.73 1010.74 1010.67 1010.54 1010.38 1010.24 1010.12 1010.05 1010.02 1010.03 1010.08 1010.15 1010.26 1010.38 1010.53 1010.70 1010.87 1011.05 1011.20 1011.32 1011.39 1011.41 1011.36 1011.27 1011.12 1010.94 1010.74 1010.53 1010.31 1010.08 1009.83 1009.56 1009.25 1008.92 1008.55 1008.17 1007.77 1007.38 1007.01 1006.67 1006.35
1009.90 1010.33 1010.65 1010.83 1010.86 1010.78 1010.62 1010.40 1010.18 1010.00 1009.86 1009.81 1009.82 1009.91 1010.06 1010.26 1010.48 1010.71 1010.92 1011.10 1011.24 1011.32 1011.34 1011.31 1011.22 1011.09 1010.94 1010.77 1010.60 1010.42 1010.24 1010.06 1009.85 1009.61 1009.32 1008.99 1008.60 1008.17 1007.72 1007.25 1006.80 1006.38 1005.99 1005.64
1009.83 1010.25 1010.56 1010.74 1010.78 1010.69 1010.49 1010.24 1009.98 1009.75 1009.59 1009.52 1009.56 1009.69 1009.90 1010.17 1010.46 1010.74 1010.98 1011.16 1011.26 1011.28 1011.22 1011.09 1010.92 1010.72 1010.52 1010.33 1010.16 1010.01 1009.87 1009.72 1009.55 1009.33 1009.04 1008.68 1008.26 1007.78 1007.27 1006.75 1006.23 1005.75 1005.31 1004.91
1009.77 1010.12 1010.38 1010.52 1010.52 1010.40 1010.18 1009.90 1009.62 1009.38 1009.21 1009.15 1009.20 1009.37 1009.63 1009.95 1010.29 1010.60 1010.86 1011.03 1011.11 1011.07 1010.95 1010.76 1010.52 1010.28 1010.05 1009.85 1009.69 1009.56 1009.45 1009.34 1009.19 1008.99 1008.71 1008.35 1007.91 1007.39 1006.83 1006.26 1005.69 1005.15 1004.66 1004.22
1009.72 1009.95 1010.11 1010.17 1010.11 1009.95 1009.71 1009.42 1009.14 1008.90 1008.75 1008.70 1008.79 1008.98 1009.28 1009.63 1010.00 1010.33 1010.60 1010.76 1010.81 1010.75 1010.59 1010.36 1010.09 1009.81 1009.57 1009.37 1009.22 1009.11 1009.03 1008.94 1008.82 1008.63 1008.36 1007.99 1007.53 1007.00 1006.40 1005.79 1005.18 1004.60 1004.08 1003.61
1009.63 1009.72 1009.75 1009.71 1009.58 1009.38 1009.12 1008.84 1008.57 1008.36 1008.24 1008.23 1008.35 1008.57 1008.89 1009.26 1009.64 1009.98 1010.25 1010.41 1010.45 1010.38 1010.20 1009.95 1009.67 1009.39 1009.15 1008.95 1008.81 1008.72 1008.65 1008.58 1008.46 1008.28 1008.00 1007.63 1007.15 1006.59 1005.98 1005.34 1004.70 1004.10 1003.55 1003.07
1009.44 1009.38 1009.27 1009.13 1008.93 1008.70 1008.44 1008.19 1007.96 1007.81 1007.74 1007.78 1007.93 1008.19 1008.53 1008.91 1009.29 1009.63 1009.89 1010.04 1010.08 1010.01 1009.84 1009.60 1009.33 1009.06 1008.83 1008.65 1008.52 1008.43 1008.36 1008.28 1008.16 1007.96 1007.66 1007.26 1006.77 1006.18 1005.55 1004.89 1004.24 1003.64 1003.09 1002.62
1009.07 1008.87 1008.65 1008.41 1008.17 1007.92 1007.69 1007.49 1007.33 1007.25 1007.26 1007.37 1007.57 1007.86 1008.22 1008.60 1008.98 1009.31 1009.56 1009.72 1009.76 1009.70 1009.54 1009.33 1009.09 1008.85 1008.65 1008.48 1008.35 1008.26 1008.18 1008.07 1007.91 1007.67 1007.34 1006.90 1006.37 1005.76 1005.10 1004.43 1003.78 1003.18 1002.66 1002.23
1008.48 1008.16 1007.85 1007.55 1007.28 1007.05 1006.87 1006.74 1006.67 1006.69 1006.79 1006.98 1007.25 1007.58 1007.96 1008.35 1008.72 1009.04 1009.29 1009.44 1009.49 1009.45 1009.32 1009.15 1008.95 1008.75 1008.57 1008.42 1008.29 1008.19 1008.08 1007.93 1007.72 1007.42 1007.03 1006.53 1005.95 1005.30 1004.62 1003.94 1003.30 1002.73 1002.25 1001.87
1007.65 1007.25 1006.88 1006.54 1006.28 1006.08 1005.96 1005.92 1005.96 1006.09 1006.29 1006.57 1006.91 1007.29 1007.70 1008.10 1008.47 1008.79 1009.03 1009.19 1009.25 1009.23 1009.15 1009.02 1008.86 1008.70 1008.55 1008.42 1008.30 1008.17 1008.02 1007.82 1007.54 1007.17 1006.71 1006.15 1005.51 1004.82 1004.11 1003.42 1002.80 1002.26 1001.83 1001.51
1006.64 1006.18 1005.77 1005.43 1005.19 1005.03 1004.98 1005.03 1005.18 1005.41 1005.72 1006.08 1006.50 1006.93 1007.37 1007.79 1008.18 1008.50 1008.74 1008.91 1009.00 1009.01 1008.96 1008.88 1008.77 1008.65 1008.53 1008.41 1008.29 1008.14 1007.95 1007.69 1007.35 1006.91 1006.37 1005.75 1005.05 1004.32 1003.59 1002.90 1002.29 1001.79 1001.41 1001.16
Thickness
5806 5789 5774 5779 5794 5795 5793 5782 5770 5769 5785 5788 5785 5779 5777 5778 5773 5766 5762 5759 5755 5753 5755 5755 5753 5751 5747 5743 5739 5736 5732 5730 5727 5724 5721 5720 5719 5719 5719 5719 5716 5713 5711 5709
5792 5774 5782 5796 5804 5806 5799 5787 5776 5778 5790 5789 5783 5774 5773 5771 5768 5765 5760 5755 5752 5749 5748 5747 5745 5744 5739 5734 5731 5729 5725 5721 5718 5715 5712 5712 5711 5711 5711 5710 5707 5705 5702 5701
5774 5780 5797 5799 5800 5796 5793 5782 5775 5773 5783 5788 5776 5760 5758 5761 5762 5760 5759 5757 5753 5749 5744 5742 5740 5737 5734 5729 5726 5723 5717 5714 5710 5706 5704 5702 5700 5700 5699 5698 5697 5696 5694 5692
5790 5797 5799 5795 5790 5790 5776 5789 5788 5778 5765 5758 5761 5729 5738 5744 5747 5751 5752 5753 5751 5749 5744 5740 5736 5732 5728 5725 5723 5717 5712 5707 5702 5697 5692 5688 5685 5684 5685 5685 5685 5685 5685 5684
5785 5796 5795 5791 5793 5797 5788 5796 5785 5771 5754 5742 5729 5709 5710 5729 5732 5741 5749 5752 5750 5746 5742 5736 5733 5728 5725 5721 5717 5711 5705 5699 5694 5689 5684 5679 5676 5674 5674 5673 5673 5674 5675 5675
5789 5811 5812 5807 5812 5811 5807 5796 5776 5751 5730 5705 5705 5696 5702 5722 5733 5740 5748 5750 5747 5744 5740 5735 5731 5726 5720 5716 5710 5705 5697 5690 5685 5680 5675 5671 5667 5664 5662 5661 5661 5663 5666 5667
5765 5789 5810 5819 5804 5804 5800 5778 5743 5710 5691 5695 5718 5706 5716 5745 5754 5752 5749 5747 5746 5743 5738 5731 5725 5720 5714 5709 5703 5697 5690 5682 5677 5672 5667 5663 5659 5656 5654 5654 5655 5654 5654 5654
5747 5758 5793 5809 5800 5788 5790 5780 5745 5722 5723 5726 5727 5711 5731 5757 5760 5759 5755 5751 5746 5741 5736 5729 5723 5717 5709 5703 5696 5689 5682 5675 5670 5664 5660 5655 5652 5649 5648 5647 5645 5643 5643 5644
5764 5771 5807 5812 5811 5799 5786 5783 5789 5769 5764 5744 5728 5730 5739 5756 5755 5754 5752 5748 5743 5738 5733 5727 5720 5712 5704 5696 5689 5682 5675 5668 5663 5658 5653 5650 5647 5643 5640 5637 5636 5636 5636 5636
5791 5776 5800 5813 5812 5804 5798 5791 5780 5763 5743 5738 5743 5735 5726 5740 5744 5747 5745 5741 5737 5733 5728 5720 5712 5705 5698 5690 5683 5676 5669 5662 5657 5652 5647 5643 5639 5635 5632 5630 5628 5626 5625 5625
5800 5776 5785 5798 5789 5783 5785 5781 5773 5766 5759 5739 5734 5727 5750 5745 5746 5744 5742 5739 5733 5727 5720 5713 5706 5699 5691 5683 5676 5668 5661 5655 5649 5644 5639 5634 5630 5627 5623 5621 5619 5618 5616 5615
5797 5782 5770 5778 5790 5798 5791 5779 5771 5750 5746 5753 5746 5731 5761 5756 5755 5747 5740 5735 5729 5721 5714 5708 5700 5692 5683 5675 5668 5660 5653 5647 5642 5637 5632 5627 5623 5619 5616 5613 5611 5609 5606 5604
5784 5770 5754 5747 5746 5769 5781 5781 5776 5770 5758 5750 5741 5735 5758 5760 5751 5744 5735 5728 5722 5715 5708 5700 5692 5683 5675 5667 5659 5652 5645 5639 5634 5629 5624 5619 5615 5611 5607 5605 5602 5599 5596 5594
5783 5770 5758 5745 5752 5769 5773 5777 5776 5763 5749 5740 5743 5743 5752 5747 5741 5736 5730 5724 5717 5708 5700 5692 5683 5675 5667 5659 5652 5644 5638 5633 5627 5622 5616 5611 5607 5603 5600 5596 5593 5590 5586 5583
5783 5768 5771 5775 5783 5781 5776 5774 5772 5761 5754 5742 5742 5742 5744 5740 5737 5732 5727 5718 5709 5700 5692 5683 5675 5667 5660 5652 5645 5638 5631 5626 5619 5613 5608 5604 5601 5597 5592 5588 5584 5580 5576 5573
5781 5762 5764 5766 5778 5777 5773 5775 5771 5763 5758 5751 5747 5743 5749 5744 5738 5728 5720 5711 5702 5694 5685 5678 5669 5661 5653 5646 5639 5631 5625 5619 5613 5607 5602 5598 5593 5589 5585 5581 5576 5572 5567 5562
5777 5765 5753 5751 5770 5770 5759 5771 5768 5762 5762 5753 5739 5741 5744 5734 5727 5722 5716 5707 5697 5688 5680 5672 5663 5655 5648 5641 5633 5626 5619 5613 5607 5601 5596 5592 5587 5583 5578 5573 5568 5563 5558 5554
5769 5759 5752 5749 5751 5732 5763 5786 5778 5763 5758 5757 5752 5747 5738 5731 5726 5722 5714 5700 5690 5683 5674 5665 5657 5651 5645 5637 5629 5621 5614 5607 5601 5596 5591 5586 5581 5577 5572 5566 5561 5556 5551 5546
5782 5761 5748 5742 5738 5748 5766 5774 5770 5755 5746 5758 5749 5740 5736 5733 5722 5709 5705 5697 5688 5679 5670 5661 5654 5648 5640 5632 5624 5616 5608 5602 5596 5591 5586 5581 5576 5571 5566 5561 5556 5551 5546 5541
5783 5769 5750 5742 5729 5726 5757 5776 5776 5756 5735 5747 5742 5733 5728 5722 5705 5703 5701 5695 5686 5676 5667 5659 5652 5644 5635 5627 5619 5610 5603 5597 5591 5586 5581 5576 5571 5566 5561 5557 5552 5548 5542 5537
5760 5755 5745 5739 5735 5750 5765 5771 5766 5733 5724 5740 5738 5731 5723 5713 5705 5704 5701 5692 5682 5673 5664 5657 5648 5639 5631 5623 5614 5605 5599 5593 5588 5582 5578 5573 5568 5563 5559 5555 5550 5545 5540 5535
5763 5755 5751 5749 5737 5738 5763 5763 5747 5740 5747 5743 5737 5731 5723 5715 5710 5704 5696 5686 5677 5668 5660 5652 5643 5635 5628 5620 5611 5602 5595 5590 5584 5579 5574 5570 5565 5561 5558 5552 5548 5543 5538 5534
5773 5770 5762 5755 5749 5760 5767 5763 5761 5757 5746 5740 5735 5730 5722 5712 5705 5699 5690 5681 5672 5664 5656 5648 5640 5632 5625 5617 5608 5599 5593 5586 5581 5575 5571 5567 5563 5559 5555 5551 5546 5542 5538 5533
5776 5779 5764 5756 5761 5766 5768 5768 5765 5758 5748 5742 5736 5728 5719 5709 5702 5694 5685 5676 5668 5660 5652 5645 5637 5629 5622 5615 5606 5597 5591 5584 5578 5572 5568 5565 5562 5559 5555 5550 5546 5541 5536 5532
5767 5766 5758 5753 5761 5764 5765 5765 5762 5756 5750 5742 5734 5726 5717 5707 5698 5690 5681 5672 5664 5656 5649 5642 5633 5626 5619 5612 5604 5596 5589 5581 5575 5570 5567 5564 5562 5558 5554 5550 5545 5540 5536 5529
5771 5767 5757 5752 5762 5756 5755 5762 5761 5751 5744 5738 5729 5721 5715 5706 5696 5687 5677 5669 5661 5653 5646 5638 5631 5624 5617 5610 5602 5594 5587 5579 5573 5569 5566 5563 5560 5557 5553 5549 5546 5541 5534 5527